Probability
0 0 0 0 0 0 0 0 0 0 0 0 0 0 3 3 0 0 0 0 0 0 0 0 0 0 0 0 0 0 0 0 0 0 0 0 0 0
0 0 0 0 0 0 0 0 0 0 0 0 0 0 0 0 0 0 0 0 0 0 0 0 0 0 0 0 0 0 0 0 0 0 0 0 0 0
0 0 0 0 0 0 0 0 0 0 0 0 0 0 0 0 0 0 0 0 0 0 0 0 0 0 0 0 0 0 0 0 0 0 0 0 0 0
0 0 0 0 0 0 0 0 0 0 0 0 0 0 0 0 0 0 0 0 0 0 0 0 0 0 0 0 0 0 0 0 0 0 0 0 0 0
0 0 0 0 0 0 0 0 0 0 0 0 0 0 0 0 0 0 0 0 0 0 0 0 0 0 0 0 0 0 0 0 0 0 0 0 0 0
0 0 0 0 0 0 0 0 0 0 0 0 0 0 0 0 0 0 0 0 0 0 0 0 0 0 0 0 0 0 0 0 0 0 0 0 0 0
0 0 0 0 0 0 0 0 0 0 0 0 0 0 0 0 0 0 0 0 0 0 0 0 0 0 0 0 0 0 0 0 0 0 0 0 0 0
0 0 0 0 0 0 0 0 0 0 0 0 0 0 0 0 0 0 0 0 0 0 0 0 0 0 0 0 0 0 0 0 0 0 0 0 0 0
0 0 0 0 0 0 0 0 0 0 0 0 0 0 0 0 0 0 0 0 0 0 0 0 0 0 0 0 0 0 0 0 0 0 0 0 0 0
0 0 0 0 0 0 0 0 0 0 0 0 0 0 0 0 0 0 0 0 0 0 0 0 0 0 0 0 0 0 0 0 0 0 0 0 0 0
0 0 0 0 0 0 0 0 0 0 0 0 0 0 0 0 0 0 0 0 0 0 0 0 0 0 0 0 0 0 0 0 0 0 0 0 0 0
0 0 0 0 0 0 0 0 0 0 0 0 0 0 0 0 0 0 0 0 0 0 0 0 0 0 0 0 0 0 0 0 0 0 0 0 0 0
0 0 0 0 0 0 0 0 0 0 0 0 0 0 0 0 0 0 0 0 0 0 0 0 0 0 0 0 0 0 0 0 0 0 0 0 0 0
0 0 0 0 0 0 0 0 0 0 0 0 0 0 0 0 0 0 0 0 0 0 0 0 0 0 0 0 0 0 0 0 0 0 0 0 0 0
0 0 0 0 0 0 0 0 0 0 0 0 0 0 0 0 0 0 0 0 0 0 0 0 0 0 0 0 0 0 0 0 0 0 0 0 0 0
0 0 0 0 0 0 0 0 0 0 0 0 0 0 0 0 0 0 0 0 0 0 0 0 0 0 0 0 0 0 0 0 0 0 0 0 0 0
0 0 0 0 0 0 0 0 0 0 0 0 0 0 0 0 0 0 0 0 0 0 0 0 0 0 0 0 0 0 0 0 0 0 0 0 0 0
0 0 0 0 0 0 0 0 0 0 0 0 0 0 0 0 0 0 0 0 0 0 0 0 0 0 0 0 0 0 0 0 0 0 0 0 0 0
0 0 0 0 0 0 0 0 0 0 0 0 0 0 0 0 0 0 0 0 0 0 0 0 0 0 0 0 0 0 0 0 0 0 0 0 0 0
0 0 0 0 0 0 0 0 0 0 0 0 0 0 0 0 0 0 0 0 0 0 0 0 0 0 0 0 0 0 0 0 0 0 0 0 0 0
0 0 0 0 0 0 0 0 0 0 0 0 0 0 0 0 0 0 0 0 0 0 0 0 0 0 0 0 0 0 0 0 0 0 0 0 0 0
0 0 0 0 0 0 0 0 0 0 0 0 0 0 0 0 0 0 0 0 0 0 0 0 0 0 0 0 0 0 0 0 0 0 0 0 0 0
0 0 0 0 0 0 0 0 0 0 0 0 0 0 0 0 0 0 0 0 0 0 0 0 0 0 0 0 0 0 0 0 0 0 0 0 0 0
Height
5788 5785 5783 5781 5779 5778 5777 5777 5777 5777 5778 5778 5779 5781 5784 5786 5790 5793 5796 5800 5804 5808 5813 5817 5822 5827 5832 5837 5843 5849 5855 5860 5865 5871 5875 5880 5884 5888
5778 5776 5773 5771 5769 5767 5766 5765 5765 5765 5766 5766 5767 5769 5772 5775 5778 5782 5785 5789 5793 5798 5802 5807 5811 5816 5822 5827 5833 5839 5845 5850 5856 5862 5867 5872 5876 5881
5767 5765 5762 5759 5757 5755 5754 5753 5752 5752 5753 5755 5755 5756 5759 5762 5765 5769 5773 5777 5782 5786 5791 5796 5801 5806 5811 5817 5822 5828 5834 5840 5846 5852 5858 5863 5868 5873
5756 5752 5749 5746 5744 5742 5740 5740 5739 5739 5740 5742 5742 5743 5745 5748 5752 5756 5761 5765 5770 5775 5780 5784 5789 5795 5800 5806 5812 5818 5824 5830 5836 5843 5849 5855 5860 5865
5743 5739 5736 5733 5731 5728 5727 5726 5725 5725 5726 5728 5730 5731 5733 5735 5739 5743 5748 5753 5758 5763 5768 5773 5778 5784 5789 5795 5801 5808 5814 5820 5826 5833 5839 5845 5851 5856
5731 5726 5723 5720 5717 5715 5714 5713 5712 5713 5713 5714 5716 5718 5720 5722 5726 5730 5735 5740 5746 5751 5756 5761 5767 5772 5778 5785 5791 5796 5803 5809 5815 5822 5829 5835 5842 5848
5719 5714 5710 5708 5705 5703 5702 5701 5700 5700 5700 5701 5703 5705 5707 5709 5713 5717 5722 5727 5733 5739 5744 5750 5756 5762 5767 5773 5779 5785 5791 5798 5805 5812 5819 5826 5832 5838
5707 5703 5699 5696 5694 5692 5690 5689 5689 5689 5689 5689 5691 5693 5695 5697 5700 5704 5709 5715 5722 5727 5732 5738 5744 5750 5756 5762 5768 5774 5781 5787 5794 5801 5808 5815 5822 5829
5697 5692 5688 5685 5683 5682 5680 5679 5678 5677 5677 5678 5679 5681 5682 5685 5688 5692 5696 5702 5709 5714 5720 5727 5733 5739 5745 5750 5757 5763 5770 5777 5783 5790 5798 5805 5812 5819
5686 5682 5678 5675 5673 5671 5670 5669 5667 5667 5666 5666 5668 5669 5670 5672 5676 5680 5684 5690 5697 5702 5708 5715 5722 5728 5734 5739 5746 5752 5759 5766 5773 5780 5787 5795 5802 5809
5676 5672 5668 5666 5663 5661 5659 5658 5657 5656 5655 5655 5656 5657 5659 5661 5664 5668 5673 5678 5685 5691 5697 5704 5710 5716 5723 5729 5735 5742 5748 5755 5762 5769 5777 5784 5792 5799
5667 5663 5659 5656 5653 5651 5649 5647 5646 5645 5644 5644 5645 5646 5647 5649 5652 5656 5660 5666 5672 5679 5685 5692 5699 5705 5712 5719 5725 5731 5738 5745 5752 5759 5766 5774 5781 5789
5658 5654 5650 5647 5644 5641 5639 5637 5635 5634 5634 5634 5634 5635 5636 5638 5640 5644 5648 5653 5660 5667 5673 5680 5687 5694 5701 5708 5715 5721 5728 5735 5742 5749 5756 5763 5771 5779
5648 5644 5640 5637 5634 5631 5629 5627 5625 5624 5623 5623 5623 5624 5625 5626 5628 5632 5636 5641 5647 5654 5660 5668 5675 5683 5690 5697 5704 5711 5718 5725 5732 5739 5746 5753 5760 5769
5639 5635 5631 5627 5624 5621 5619 5617 5615 5614 5613 5613 5613 5613 5613 5615 5617 5620 5624 5629 5635 5642 5649 5657 5664 5671 5679 5687 5694 5701 5708 5715 5722 5730 5737 5744 5752 5759
5630 5626 5622 5618 5615 5612 5609 5607 5605 5604 5603 5602 5602 5602 5602 5604 5606 5609 5613 5617 5623 5630 5638 5645 5653 5661 5669 5676 5684 5691 5699 5706 5713 5720 5727 5734 5742 5750
5620 5616 5612 5609 5606 5602 5600 5597 5596 5594 5593 5592 5592 5592 5592 5593 5595 5598 5602 5606 5612 5619 5626 5634 5641 5649 5657 5665 5674 5682 5689 5697 5704 5711 5718 5725 5733 5741
5610 5607 5603 5600 5597 5594 5591 5588 5586 5585 5583 5583 5582 5582 5582 5583 5585 5587 5591 5595 5601 5607 5615 5622 5630 5638 5647 5655 5664 5672 5680 5688 5695 5702 5709 5717 5724 5732
5602 5598 5594 5591 5588 5585 5582 5580 5578 5576 5574 5573 5573 5572 5572 5573 5575 5577 5581 5585 5591 5597 5604 5611 5619 5628 5637 5646 5654 5663 5671 5679 5686 5693 5701 5708 5716 5724
5593 5590 5586 5583 5580 5577 5574 5572 5570 5568 5566 5565 5564 5564 5564 5565 5566 5568 5572 5576 5581 5587 5593 5601 5609 5618 5628 5636 5644 5653 5661 5670 5677 5685 5692 5699 5707 5715
5585 5581 5578 5575 5572 5569 5566 5563 5561 5559 5557 5556 5556 5556 5556 5557 5558 5561 5563 5567 5572 5578 5585 5592 5600 5608 5616 5625 5634 5643 5652 5660 5668 5676 5684 5691 5699 5707
5577 5573 5570 5567 5564 5561 5558 5555 5553 5551 5549 5548 5548 5548 5548 5549 5551 5553 5556 5560 5564 5570 5576 5583 5590 5598 5607 5616 5625 5634 5642 5650 5659 5666 5675 5684 5692 5701
5569 5565 5562 5559 5556 5552 5549 5547 5545 5543 5541 5540 5540 5540 5541 5542 5544 5546 5549 5552 5557 5562 5567 5574 5581 5589 5597 5606 5615 5624 5633 5642 5650 5659 5667 5676 5684 5691
Wind_Speed
33 34 35 35 36 36 36 36 36 37 38 39 41 41 41 42 42 42 42 43 43 44 43 44 45 46 46 47 48 48 48 46 45 43 41 38 36 34
36 36 37 38 38 39 39 40 40 39 39 40 42 43 43 43 43 43 43 44 44 45 45 45 45 46 47 47 48 48 48 48 46 45 43 41 38 36
39 39 39 40 41 41 41 42 42 42 41 41 43 44 44 44 44 44 44 45 45 46 47 47 46 45 46 47 47 47 48 48 48 47 45 43 41 38
41 42 42 42 42 42 43 43 43 43 43 42 43 44 45 45 45 46 46 45 45 46 47 48 47 46 46 47 46 47 48 48 48 48 47 45 42 40
43 43 42 42 41 42 42 42 42 42 42 42 42 44 45 46 46 46 47 46 46 46 46 47 48 47 47 46 47 48 49 49 49 49 49 47 44 42
43 42 41 40 40 39 39 40 40 41 41 41 41 42 44 45 45 46 46 46 46 46 45 45 47 47 47 47 47 48 49 50 50 50 49 48 45 43
42 40 39 38 37 37 36 37 38 39 40 40 40 41 42 43 44 45 46 46 46 46 45 45 45 47 47 47 46 47 48 48 49 50 50 48 46 44
40 38 37 36 36 35 35 35 36 36 37 38 39 39 40 41 43 44 45 46 46 47 47 46 45 45 46 48 48 47 48 47 48 49 50 49 48 45
38 37 36 35 34 33 33 33 34 34 36 36 37 38 39 40 41 42 43 45 45 45 46 46 45 44 44 46 47 48 48 47 48 49 49 49 49 47
37 35 34 34 33 32 32 32 33 33 34 35 35 36 38 39 41 41 42 43 44 45 46 45 45 44 44 43 44 45 46 47 48 49 48 48 48 48
35 34 34 33 33 32 33 32 32 32 33 34 34 35 36 38 40 41 42 43 43 44 46 46 45 44 43 42 42 44 45 46 46 48 48 49 49 49
35 34 34 32 32 32 33 32 32 33 33 33 34 34 35 37 38 40 41 43 43 43 45 46 45 45 44 43 43 44 44 44 45 46 48 49 49 51
34 34 33 32 31 32 32 32 32 32 32 32 32 33 34 36 38 39 40 42 43 43 45 46 46 45 44 43 43 43 43 44 44 45 47 48 49 50
35 34 33 32 32 31 31 31 32 31 31 31 32 32 33 34 36 38 39 41 43 45 46 46 47 46 45 44 42 42 42 42 43 44 46 48 49 50
34 34 33 32 32 31 31 30 30 29 30 30 30 30 31 32 34 36 38 40 42 45 46 46 47 47 45 45 44 42 41 41 42 43 45 46 47 49
34 33 33 32 31 31 30 30 29 29 29 29 30 30 30 31 32 34 36 38 41 43 45 47 47 47 46 45 44 42 42 41 42 42 43 45 46 48
34 33 32 31 30 29 29 29 29 28 28 28 28 29 29 30 32 33 35 37 39 41 44 46 47 48 48 46 44 42 41 41 40 41 42 44 45 45
33 32 31 30 29 28 28 27 27 27 27 27 27 28 28 29 30 31 33 35 37 39 42 45 47 48 48 47 45 43 41 41 41 40 42 44 44 45
32 31 30 29 28 27 27 26 26 26 26 25 25 26 26 27 28 29 32 34 36 38 41 44 46 47 47 47 45 43 41 41 41 40 40 42 44 44
31 30 29 28 28 27 26 26 26 25 25 24 24 24 23 24 25 27 29 32 35 37 40 43 45 46 47 47 46 45 43 42 42 41 41 41 42 43
30 29 28 27 27 27 26 26 26 25 25 25 24 23 23 23 23 25 27 29 33 35 38 41 43 45 47 48 48 46 45 43 42 42 42 42 43 44
29 28 28 27 27 27 26 26 25 25 24 24 23 22 22 23 23 24 26 28 31 34 36 39 42 45 47 48 48 47 46 45 44 43 42 43 43 44
28 28 27 27 27 26 25 25 24 23 22 21 21 22 22 22 23 24 25 27 30 33 36 38 41 44 46 48 49 48 48 47 44 43 43 43 44 44
Wind_Direction
296 294 291 289 287 285 282 279 276 273 269 266 263 259 256 253 251 248 245 244 243 242 241 241 238 236 235 233 232 231 231 231 231 231 232 234 235 237
297 294 291 288 285 283 280 278 276 273 269 266 264 261 258 254 251 249 245 243 242 241 241 241 240 237 235 235 233 232 230 230 230 230 231 232 234 235
299 295 291 288 285 281 279 276 274 272 269 266 264 262 259 256 252 249 247 244 242 241 240 240 239 237 235 234 232 231 230 229 228 229 230 232 233 233
300 296 292 288 285 281 278 275 272 270 268 265 263 261 259 256 253 250 247 245 243 241 241 240 239 238 236 234 234 232 231 229 228 228 229 230 231 232
302 298 294 289 284 281 277 275 272 269 267 264 262 260 258 256 253 250 247 245 243 241 241 240 239 239 237 235 235 233 233 231 229 229 229 229 231 232
303 299 294 290 286 282 279 275 272 269 266 264 262 260 258 255 253 249 246 244 242 241 240 240 239 238 237 235 234 233 233 231 229 228 228 228 229 230
303 300 295 291 288 283 280 276 273 270 267 265 262 260 258 255 252 249 246 243 241 240 239 239 239 238 236 235 234 232 231 230 229 228 227 227 228 229
304 300 297 293 288 284 280 277 274 271 268 265 263 260 258 255 251 248 246 242 240 238 237 238 238 237 236 236 234 231 229 230 229 228 227 227 227 228
305 301 297 294 289 284 281 279 276 273 270 266 263 260 257 254 251 248 245 241 239 236 235 235 235 235 235 234 234 232 230 229 229 227 226 226 226 226
305 302 298 294 290 286 283 281 278 275 272 268 264 261 257 253 251 248 244 241 238 235 234 233 232 232 233 232 233 232 230 228 227 226 226 225 225 226
305 302 299 295 291 288 285 283 280 277 274 270 266 262 259 255 251 247 244 240 237 235 234 232 231 230 230 230 231 232 229 227 227 226 225 224 224 225
306 303 300 296 293 290 287 284 281 278 274 271 268 263 259 255 251 247 244 240 236 234 233 231 229 229 229 229 230 231 229 226 226 225 223 222 224 224
306 303 300 297 294 291 288 285 282 279 275 272 269 265 260 256 251 247 243 240 236 232 231 230 228 228 228 227 228 230 229 227 226 224 221 221 222 223
306 303 300 297 295 293 290 286 283 279 275 272 269 266 261 257 251 247 243 239 235 231 229 229 228 227 227 226 227 228 228 226 225 225 222 221 220 220
306 303 300 297 296 294 291 287 284 280 276 272 269 266 263 257 251 247 243 239 235 231 229 228 227 227 227 227 227 227 226 225 224 224 222 222 222 220
305 303 301 298 296 294 290 287 285 282 278 274 270 266 262 257 252 247 243 240 236 232 229 227 226 226 226 226 225 225 224 223 222 223 221 221 220 220
306 304 301 298 297 295 291 287 284 282 278 276 273 268 263 258 252 247 243 238 235 231 228 226 225 224 224 223 222 221 221 220 220 221 220 219 220 219
306 304 302 299 297 296 293 289 286 284 280 275 273 270 264 257 251 246 241 236 232 229 226 224 223 222 222 221 219 219 218 219 219 219 219 216 216 216
305 304 303 300 298 297 294 291 289 285 281 277 274 271 264 257 250 246 241 235 230 227 224 222 222 221 220 219 219 218 218 218 218 218 218 216 214 215
304 304 303 301 299 296 294 291 289 286 282 278 275 271 264 258 252 246 239 233 229 225 223 221 220 219 218 217 217 217 217 217 217 216 216 215 213 213
302 302 302 301 299 296 294 292 290 286 281 277 273 268 263 258 252 246 239 232 227 224 221 219 219 218 217 216 216 216 215 216 215 214 214 213 213 211
300 300 300 300 299 297 295 293 290 286 281 277 271 266 262 256 250 245 239 231 226 223 221 219 218 216 215 215 214 214 215 215 216 214 211 211 211 209
298 298 299 299 299 297 294 292 290 287 281 276 271 265 260 256 249 243 238 230 225 222 220 218 217 215 214 214 214 213 213 213 214 213 211 209 208 206